Overview Statistics Trail Chart Weather Telemetry Raw packets
 

This is the latest recevied weather packets stored in our database for station/object KE5QKR. If no packets are shown the sender has not sent any weather packets the latest 10 day(s).

<< 88 89 90 91 92 93 94 >>
Time Temp. Humidity Pressure Rain* Wind** Luminosity Snow
1777318448 30° C 61% 1013.6 hPa 0 mm - 494 W/m² -
1777318146 30° C 57% 1013.8 hPa 0 mm - 698 W/m² -
1777317843 30° C 58% 1013.6 hPa 0 mm - 660 W/m² -
1777317540 30° C 57% 1013.8 hPa 0 mm - 572 W/m² -
1777317237 30.56° C 58% 1013.9 hPa 0 mm - 611 W/m² -
1777316932 30° C 58% 1013.9 hPa 0 mm - 586 W/m² -
1777316630 30.56° C 58% 1013.8 hPa 0 mm - 728 W/m² -
1777316326 30.56° C 60% 1013.8 hPa 0 mm - 738 W/m² -
1777316023 30.56° C 59% 1013.8 hPa 0 mm - 728 W/m² -
1777315723 30.56° C 61% 1014.2 hPa 0 mm - 642 W/m² -
1777315419 30° C 57% 1013.8 hPa 0 mm - 758 W/m² -
1777315117 30° C 61% 1013.8 hPa 0 mm - 786 W/m² -
1777314812 30.56° C 60% 1013.9 hPa 0 mm - 758 W/m² -
1777314510 30° C 60% 1013.8 hPa 0 mm - 764 W/m² -
1777314206 30.56° C 59% 1013.8 hPa 0 mm - 768 W/m² -
1777313905 30° C 61% 1013.7 hPa 0 mm - 783 W/m² -
1777313601 30.56° C 62% 1013.7 hPa 0 mm - 791 W/m² -
1777313300 30° C 62% 1013.9 hPa 0 mm - 785 W/m² -
1777312995 30° C 61% 1013.9 hPa 0 mm - 793 W/m² -
1777312692 30.56° C 61% 1013.8 hPa 0 mm - 793 W/m² -
1777312388 30° C 62% 1014 hPa 0 mm - 798 W/m² -
1777312086 30.56° C 62% 1014.2 hPa 0 mm - 791 W/m² -
1777311783 30° C 64% 1014.2 hPa 0 mm - 797 W/m² -
1777311480 30° C 62% 1013.9 hPa 0 mm - 789 W/m² -
1777311176 30° C 62% 1013.9 hPa 0 mm - 806 W/m² -

* Rain latest hour (hover to see other rain measurements)
** Current wind speed in m/s (hover to see current wind gust speed)